GFSMW_850_thetae_000.txt.gz
Theta_e
350 351 351 352 353 354 355 354 353 352 349 346 344 342 342 342 344 343 342 341 341 340 337 340 340 341 342 342 337 339 340 343 345 343 342 342 342 343 342 342 345 345 346
348 351 353 353 354 355 355 354 353 350 349 347 345 344 345 344 341 341 336 338 340 339 339 338 339 340 342 342 341 338 339 340 342 341 341 342 343 347 347 345 344 340 341
348 350 353 356 356 356 356 352 351 349 349 348 347 344 343 341 338 338 338 337 338 339 337 338 338 339 341 341 340 339 339 339 339 339 341 341 343 343 344 345 345 343 343
346 350 356 358 358 358 357 355 351 350 351 346 344 342 342 337 338 338 335 335 339 338 338 338 338 339 339 339 340 338 339 339 338 340 339 344 345 343 344 342 342 342 342
346 355 357 358 353 357 355 352 349 350 347 345 343 343 339 337 338 338 338 335 336 337 338 337 337 338 340 339 338 339 338 338 338 340 341 342 343 340 340 342 339 341 341
356 358 356 358 346 345 352 350 349 345 346 343 344 338 337 339 338 338 339 337 337 338 338 339 338 337 339 340 340 341 339 340 340 341 341 342 341 342 342 341 340 340 341
355 346 339 337 337 351 350 346 347 345 343 343 338 336 338 336 338 339 339 338 338 338 338 338 337 337 338 340 341 341 339 339 340 339 342 341 342 342 341 341 340 340 342
345 343 346 354 351 349 347 345 348 344 342 343 339 339 337 336 338 337 339 338 338 339 337 337 337 337 337 338 339 340 339 339 338 340 340 340 340 341 338 337 339 339 340
351 345 340 336 346 346 346 347 347 345 344 341 340 339 337 338 338 338 338 338 337 338 338 340 339 338 338 338 338 340 339 339 340 341 338 342 339 340 341 340 340 339 338
348 348 347 346 345 346 346 346 346 344 343 342 342 339 335 337 337 338 338 338 338 339 339 339 339 339 339 338 338 338 339 338 339 340 336 336 332 337 340 341 340 340 339
350 347 344 345 345 346 346 344 344 344 342 340 342 340 335 336 336 336 334 335 338 339 339 340 337 338 338 338 339 339 338 339 336 335 332 329 330 340 340 339 338 339 339
349 346 347 347 345 346 347 343 342 343 338 340 341 341 336 335 336 336 334 335 337 337 337 339 340 338 338 338 338 338 337 336 334 334 336 335 336 338 337 336 337 336 336
350 348 347 348 347 348 347 345 339 343 344 345 340 342 341 340 338 337 335 334 333 335 336 337 336 338 338 338 338 337 336 335 335 336 336 336 337 336 337 336 334 334 336
351 348 348 348 348 348 348 347 344 342 343 344 342 341 341 340 339 337 336 335 334 333 335 334 335 336 336 336 336 335 335 335 335 333 330 330 333 331 330 334 332 331 333
353 351 350 348 345 347 344 347 348 343 343 341 343 340 339 341 339 339 337 337 336 335 334 333 333 334 334 334 334 334 334 334 334 333 332 332 332 330 331 329 327 326 328
350 350 350 350 349 349 346 346 346 346 344 342 343 341 338 338 338 339 335 336 336 336 335 335 334 334 334 335 334 334 333 333 333 332 331 332 332 331 333 333 331 325 331
349 347 346 345 345 344 344 346 346 348 345 344 341 342 337 339 336 335 337 338 337 336 336 335 335 334 332 331 330 330 330 330 330 330 331 330 329 328 326 326 326 329 331
344 343 342 342 341 340 340 341 342 344 345 343 342 341 337 337 337 337 337 337 335 333 332 333 332 332 331 330 331 331 328 327 327 326 326 323 323 324 324 323 322 321 322
341 339 337 335 332 329 329 330 330 332 341 345 342 340 337 335 336 337 337 335 333 332 330 325 329 332 332 331 330 329 328 328 326 325 324 323 322 322 321 321 318 313 312
336 333 329 330 330 332 333 334 336 337 339 342 342 339 338 336 336 335 335 333 333 329 328 327 324 330 331 328 328 327 327 325 324 322 317 315 316 318 317 318 316 312 311
333 330 331 331 332 332 333 336 336 338 339 342 341 338 337 337 335 334 334 334 332 330 327 325 324 326 326 324 321 319 319 318 318 316 315 315 312 311 313 313 312 314 314
329 330 331 330 330 329 331 334 335 334 335 337 338 337 337 335 334 334 333 331 329 327 325 324 322 320 319 320 319 319 318 316 313 312 312 313 312 313 315 317 314 310 310
329 329 329 328 328 329 330 331 329 329 331 333 334 334 333 333 332 331 328 326 322 321 320 318 318 318 318 317 316 317 317 317 316 316 317 316 316 315 311 307 307 308 309
328 328 328 327 326 326 327 327 325 326 327 328 326 325 325 324 323 322 320 319 317 317 317 317 316 316 316 315 315 316 314 314 312 307 303 303 303 303 303 303 303 303 303
326 327 327 324 322 321 321 322 322 324 324 323 323 322 322 320 318 316 314 313 310 308 308 306 304 303 303 302 301 300 301 301 304 305 305 304 304 304 304 303 302 302 301
325 325 323 321 320 320 320 319 320 321 320 319 317 315 313 311 310 307 303 302 301 300 299 299 298 298 298 298 298 298 300 303 304 304 304 303 303 303 302 302 302 301 301

GFSMW_850_thetae_003.txt.gz
Theta_e
349 350 351 352 351 353 353 351 352 353 348 349 344 342 340 342 341 341 341 341 339 339 340 338 338 339 339 338 336 336 338 336 341 343 344 341 342 342 341 342 343 345 344
351 350 351 352 352 352 351 350 349 348 348 349 346 345 344 343 343 342 342 342 340 338 338 338 337 338 339 338 340 337 338 338 342 340 340 341 341 341 343 344 343 344 344
352 352 352 341 346 354 354 353 350 348 348 348 347 346 344 342 341 340 339 337 337 337 337 337 337 337 338 339 339 341 337 338 340 340 337 340 341 340 341 342 343 345 343
355 354 344 337 349 355 355 354 351 349 349 350 345 342 342 342 338 336 336 336 336 334 337 338 338 337 338 339 340 341 340 337 339 338 337 338 340 341 340 342 342 342 343
354 352 353 356 357 352 352 342 341 350 350 345 342 342 340 336 337 337 337 338 338 335 338 338 338 337 339 338 340 339 340 339 339 339 337 337 339 341 340 339 340 340 342
357 358 359 355 351 348 343 347 350 348 343 341 341 337 337 336 335 335 338 337 337 336 335 337 338 337 337 338 338 339 339 338 337 338 337 337 340 340 339 341 340 340 340
357 356 353 349 344 348 351 349 347 344 340 342 338 338 337 335 337 336 339 338 338 337 337 337 339 338 336 338 338 338 339 339 338 339 338 338 339 339 341 341 340 340 340
355 349 346 347 350 348 346 344 345 341 340 341 340 338 336 336 338 337 337 337 337 337 337 337 337 338 337 337 337 338 340 340 339 339 339 339 339 340 341 341 339 339 341
346 349 353 352 349 346 342 344 343 333 340 340 340 337 335 337 337 337 337 336 336 336 336 337 337 338 337 336 336 338 339 340 339 339 338 339 340 335 339 338 339 339 339
347 345 347 346 345 344 341 340 333 332 340 340 341 338 335 335 334 333 336 337 337 337 337 337 338 339 338 338 337 338 338 339 339 339 339 340 339 336 337 337 336 340 339
347 345 344 343 345 344 340 339 340 338 340 340 341 340 335 336 335 334 333 335 336 337 338 338 337 337 339 338 338 338 339 339 339 339 340 338 339 332 335 336 337 338 339
347 346 344 344 346 345 344 341 341 340 337 341 341 341 341 336 337 334 333 332 334 335 337 339 336 337 337 337 338 338 336 338 337 335 334 332 330 333 337 337 336 337 337
346 344 346 346 346 347 346 345 342 340 340 342 341 341 340 339 338 336 334 333 333 334 336 336 339 338 337 337 337 336 336 335 333 334 336 334 332 334 336 336 335 336 335
346 347 347 348 348 348 346 346 338 342 343 344 342 340 339 339 338 338 335 334 332 334 334 336 336 336 337 337 337 336 335 335 335 336 336 336 335 334 334 334 332 335 333
347 348 349 349 347 346 345 344 347 342 343 343 341 340 337 339 339 339 336 335 335 333 332 332 333 333 334 334 334 334 334 334 334 334 333 332 330 331 331 331 332 331 329
350 349 348 347 348 347 347 347 347 345 343 343 342 341 337 337 337 335 335 336 335 334 333 333 333 334 334 334 334 334 334 333 332 332 332 332 332 332 333 331 329 328 329
347 347 345 345 345 346 346 346 345 345 345 344 341 340 338 335 334 337 336 335 335 334 334 333 333 333 332 332 330 329 330 331 331 331 331 332 332 332 331 330 329 327 327
344 343 342 342 342 342 341 342 342 343 345 344 342 340 339 336 337 337 337 335 334 331 332 334 333 332 330 330 330 331 328 328 328 328 327 324 325 325 323 323 322 321 322
341 341 340 340 339 335 329 328 329 330 337 344 342 339 338 337 337 337 337 335 333 330 325 327 329 332 330 330 328 329 328 327 326 325 324 322 322 323 323 320 318 316 315
340 339 337 328 328 329 330 331 332 335 334 340 343 339 337 336 336 335 336 334 332 329 326 324 327 330 330 329 328 327 327 327 326 322 320 319 319 320 318 317 315 313 312
336 329 328 329 329 330 331 332 333 335 335 337 341 340 338 336 336 335 335 333 331 331 330 325 324 327 327 326 325 325 325 322 319 315 314 314 314 316 317 315 312 314 316
327 329 328 328 330 331 330 333 333 333 335 338 338 338 338 336 335 334 333 330 329 330 327 323 322 322 322 320 319 317 317 318 312 311 312 313 313 313 314 316 315 310 312
327 327 327 327 328 329 329 331 330 330 331 331 333 334 333 331 329 332 332 329 325 324 321 320 320 319 319 320 319 319 317 316 314 315 315 315 312 310 309 308 307 306 309
326 326 326 325 326 326 327 327 327 327 328 329 325 323 324 325 326 325 322 321 320 319 318 318 318 316 315 316 316 316 314 313 309 307 304 304 304 304 304 303 302 303 303
323 324 323 323 323 323 323 324 323 324 326 324 323 321 319 319 319 318 316 316 314 312 312 312 310 309 305 304 302 301 303 304 305 304 304 304 304 303 303 303 302 302 302
322 323 322 320 320 321 320 320 319 320 320 319 317 316 315 314 313 312 306 301 300 299 299 298 298 299 299 298 299 302 304 304 304 304 304 303 303 302 302 302 301 301 301

GFSMW_850_thetae_006.txt.gz
Theta_e
346 347 351 350 349 349 347 346 346 344 345 344 344 344 341 340 340 340 341 340 341 339 338 338 338 337 338 339 337 336 336 339 341 343 342 342 342 343 343 345 343 343 344
338 344 348 348 350 352 351 349 346 346 346 345 346 345 344 344 343 342 340 340 341 342 341 338 338 337 337 338 339 336 334 337 337 340 341 341 342 341 341 342 342 343 343
337 343 345 338 345 350 350 350 349 347 346 347 348 347 346 345 341 340 340 339 340 338 338 337 336 337 336 338 338 339 336 338 337 337 340 338 339 340 340 342 342 344 343
334 335 341 336 332 342 344 335 347 349 349 348 348 344 342 341 339 335 336 336 336 336 336 336 337 337 337 337 338 338 339 337 339 339 341 338 341 340 339 339 343 342 341
342 335 343 341 339 343 346 335 345 350 350 346 341 337 336 336 335 334 336 336 336 337 337 334 336 338 337 336 337 339 339 340 338 338 339 338 339 339 340 338 334 335 339
349 348 346 348 350 349 346 341 342 349 344 339 337 335 334 335 337 336 337 338 338 337 336 335 337 338 338 337 337 338 339 340 341 340 339 338 337 338 339 338 335 334 339
352 349 350 352 349 347 341 347 349 343 339 339 337 334 336 337 337 337 337 337 337 337 335 335 336 337 337 337 338 338 338 339 340 340 339 338 337 339 339 338 335 337 340
353 352 347 343 345 349 348 347 344 339 340 339 336 334 336 336 336 336 336 337 336 337 337 337 337 338 338 337 337 337 337 338 339 339 338 338 338 338 338 338 337 339 339
354 351 347 346 348 347 346 344 342 341 338 339 338 334 336 333 332 335 336 336 336 336 336 336 336 336 337 338 337 336 336 337 339 340 339 339 339 338 338 337 338 339 339
344 348 349 348 346 344 343 341 337 340 339 339 340 335 335 334 333 332 335 337 337 337 337 338 338 338 338 337 336 336 337 338 339 339 339 339 338 339 339 337 338 337 337
349 349 347 345 344 342 339 338 340 339 339 339 341 338 335 335 334 333 333 335 335 337 338 337 337 337 338 338 337 336 338 338 339 339 339 338 339 339 337 336 335 334 337
345 343 344 344 344 343 342 342 340 337 334 338 339 340 340 338 336 334 333 333 333 336 338 337 337 338 338 337 338 338 338 339 339 339 339 339 339 337 335 335 336 335 336
338 344 344 344 346 346 345 345 345 339 340 339 339 340 339 338 337 335 333 333 333 335 336 338 337 337 337 338 338 337 337 337 338 337 335 335 334 332 333 335 336 337 336
334 344 345 344 345 347 345 343 343 339 341 341 341 338 338 338 338 336 334 333 333 334 335 335 336 337 337 337 337 337 336 336 335 337 337 336 334 334 335 336 334 334 332
332 343 344 346 346 347 344 344 344 340 342 343 340 340 336 338 338 337 335 334 332 332 332 332 333 334 334 334 335 335 334 334 335 335 334 333 333 333 334 334 333 331 331
341 345 345 347 348 346 346 345 345 342 342 342 341 339 337 336 337 335 335 334 333 332 332 333 333 333 333 333 333 333 333 333 333 333 333 333 332 331 331 331 331 331 330
345 344 345 346 346 345 346 346 346 345 342 343 341 340 338 335 333 333 335 334 334 333 333 333 332 332 332 331 330 329 331 332 332 332 332 332 333 332 332 332 331 329 329
342 346 345 344 344 343 343 344 343 342 344 343 341 341 337 335 333 334 334 334 333 331 331 330 332 332 331 330 331 329 327 328 328 329 326 325 326 326 324 323 322 322 326
343 343 342 342 341 340 338 334 332 333 341 343 342 340 338 335 335 335 335 333 331 328 325 327 329 330 330 329 327 327 326 327 327 326 324 323 322 321 317 314 316 314 311
341 342 340 339 334 328 327 328 329 331 332 339 341 339 339 337 335 336 335 335 332 330 325 323 325 329 329 327 327 327 325 326 324 321 320 318 319 318 315 315 313 313 313
338 337 336 327 327 328 328 330 332 334 334 334 338 339 339 338 336 336 335 334 331 330 329 326 326 327 326 326 325 325 324 322 319 317 316 316 316 316 317 316 313 314 315
332 328 327 327 328 330 329 331 332 332 334 335 337 337 338 337 336 335 333 331 331 329 327 325 324 324 323 322 319 320 318 316 313 312 311 311 311 313 314 315 314 312 312
326 326 326 327 328 328 328 330 331 331 332 332 333 334 334 334 331 332 330 330 328 326 325 322 322 321 319 319 318 318 318 311 311 313 314 314 311 310 305 305 304 305 308
326 326 325 326 326 327 328 328 328 328 328 329 328 329 329 324 325 326 323 324 323 324 321 321 320 319 318 318 317 316 315 314 313 309 306 304 304 303 302 302 302 302 302
324 325 326 325 326 325 326 326 326 325 326 325 324 324 323 323 323 319 318 319 318 317 318 318 317 317 316 312 309 308 305 305 304 303 303 303 303 302 302 302 301 301 300
324 323 324 323 323 323 323 323 322 323 323 323 321 320 319 317 316 315 311 305 303 303 303 303 303 303 302 301 303 303 303 303 303 303 303 303 302 302 302 301 301 300 300

GFSMW_850_thetae_009.txt.gz
Theta_e
336 343 349 350 349 346 348 349 346 341 339 342 342 341 341 341 341 339 339 339 339 340 339 339 337 337 336 335 338 339 338 336 340 342 340 340 343 344 344 344 345 343 343
344 346 348 348 340 335 345 343 345 344 343 344 344 346 344 343 343 342 341 341 341 340 340 339 337 337 337 336 339 338 337 336 340 341 339 340 342 342 342 343 344 342 342
343 342 346 337 338 344 345 337 340 344 345 344 345 344 346 346 345 342 342 341 340 339 340 340 339 338 337 336 336 339 337 335 337 339 339 340 340 340 341 340 342 343 343
338 338 340 336 335 344 344 334 335 340 346 345 345 345 346 342 338 338 337 336 337 337 338 338 337 337 336 336 336 337 339 335 335 337 338 339 338 339 340 340 342 342 342
338 338 342 339 341 335 344 336 340 343 346 347 346 342 336 335 335 335 335 334 336 336 336 336 336 335 336 337 336 337 339 339 336 337 337 339 339 340 339 338 338 339 336
338 339 338 338 336 336 341 337 340 343 343 345 339 336 335 336 337 336 336 337 337 338 337 337 337 335 336 337 337 336 338 337 338 337 338 338 338 338 336 337 338 336 334
343 348 343 339 341 344 345 340 342 344 342 339 337 334 336 336 336 336 336 336 337 337 336 335 335 336 337 338 337 336 337 338 339 339 338 338 338 338 337 337 338 337 335
350 348 347 344 345 346 337 341 346 343 339 338 335 335 335 332 334 336 336 336 336 337 337 335 335 336 337 337 337 337 337 338 338 339 339 339 339 338 337 338 338 336 336
350 351 349 346 345 345 346 345 344 339 339 339 335 335 334 333 332 334 336 337 336 335 335 336 336 336 338 338 336 336 336 337 337 338 338 339 339 338 337 338 338 336 338
339 346 346 345 348 347 344 343 337 338 337 339 336 334 334 334 333 332 334 334 336 338 337 336 337 337 337 337 338 336 336 336 336 337 338 339 339 338 339 339 337 337 338
333 347 347 345 344 343 341 338 339 338 337 338 338 335 335 336 335 333 332 332 335 337 336 336 336 337 338 338 337 336 336 337 337 338 339 339 339 339 339 339 338 337 338
346 347 345 342 342 341 338 340 340 335 335 338 338 338 338 338 335 333 333 332 334 337 338 336 337 338 338 338 337 336 336 337 338 339 338 339 338 338 338 338 337 336 336
346 346 344 344 343 342 342 343 342 339 338 338 339 339 337 338 337 334 333 332 335 336 337 337 336 337 337 338 338 338 338 339 339 339 339 338 338 339 338 337 335 336 336
344 343 343 344 344 344 344 343 343 339 341 341 340 338 336 338 338 336 333 333 334 334 335 336 337 337 337 337 337 336 336 336 337 336 336 336 335 333 333 333 334 335 336
345 344 344 343 343 344 344 343 343 339 341 342 341 339 337 337 337 337 334 332 333 332 332 333 333 334 334 334 334 335 335 335 335 336 336 334 332 332 333 333 334 333 332
340 343 344 344 346 345 346 345 345 341 341 342 342 340 338 336 335 336 334 333 332 331 332 333 332 333 332 332 332 333 333 333 333 333 333 333 332 332 332 331 331 331 331
337 343 344 345 347 347 345 345 345 345 343 342 343 341 339 337 335 333 332 333 333 333 333 332 332 331 331 330 330 330 331 331 332 331 331 331 331 331 331 331 331 328 328
344 344 343 344 342 344 344 344 344 344 343 342 342 342 339 337 335 332 333 332 331 331 331 331 331 331 330 330 328 327 327 328 329 328 326 326 326 325 323 322 322 324 327
344 344 344 343 343 342 341 339 338 336 337 340 342 342 340 338 336 333 334 332 330 327 324 325 328 330 329 327 326 326 326 327 326 324 323 322 322 318 314 314 315 316 317
339 343 342 341 339 336 330 327 327 327 328 332 342 341 340 338 336 334 335 333 331 329 325 323 325 329 328 326 325 324 324 325 324 321 320 318 317 315 314 315 313 313 313
340 339 337 334 329 327 327 327 330 331 333 333 338 340 339 338 336 335 335 333 332 330 329 327 326 326 325 325 325 324 324 323 322 320 318 316 316 316 316 315 314 315 315
336 333 329 327 327 328 329 330 332 332 332 332 332 338 339 337 336 335 335 333 331 329 328 328 326 325 325 324 323 322 316 315 316 316 316 315 313 312 314 315 314 312 312
327 325 326 326 327 329 330 331 331 331 331 333 333 335 333 333 332 333 331 331 330 328 327 326 323 322 320 320 318 318 317 310 311 312 313 314 312 310 307 307 304 305 306
325 325 325 325 327 328 329 329 329 329 331 330 330 330 329 328 324 324 324 326 326 325 324 322 320 319 318 317 316 315 313 313 313 312 308 305 303 302 302 301 301 301 301
324 325 325 325 326 326 326 326 327 328 328 327 327 325 324 324 324 323 321 321 321 319 319 318 318 318 316 315 314 312 309 306 305 304 303 303 302 301 301 301 300 300 300
323 323 323 324 325 325 326 325 324 325 325 325 323 322 322 321 321 320 319 317 316 315 314 315 312 312 310 307 306 305 303 303 302 302 302 301 301 301 300 300 300 300 299